sat.trackr.live / text

‹ back to catalog

STARLINK-5046

NORAD 53892 · 2022-119G

PAYLOAD ACTIVE UNKNOWN

§ Identity

Operator
Country
US
Launch date
2022-09-24
Launch site
AFETR
Launch vehicle
Mass (kg)
RCS (m²)

Purposes: comms

External: N2YO · Heavens-Above · Gunter

§ Orbital elements

Epoch: 2026-09-20T22:00:03.000096Z

Period
93.41 min
Inclination
53.1610°
Eccentricity
0.0000938
Mean motion
15.41638089 rev/d
Perigee alt
440.6 km
Apogee alt
441.9 km
Semi-major
6,819.4 km
B*
2.4537e-2
RAAN
161.6896°
Arg perigee
73.3007°
Mean anomaly
287.7360°
Rev number
582

§ Raw data

STARLINK-50461 53892U 22119G   26263.91670139  .01151506  00000+0  24537-1 0  99972 53892  53.1610 161.6896 0000938  73.3007 287.7360 15.41638089  5825

JSON: /api/v1/satellites/53892 · /tle

For live sub-satellite position, see the globe view (requires WebGL).

§ Visibility from observer

Set your observer location to see the next 7 days of passes ≥ 10°. The values pass through the URL so the page stays shareable.

No JS? Fill the form by hand. The geolocation button needs JavaScript.